User: anonymous   Login
Location: Columbia
(38.9520°N, 92.3340°W)
Time: 23:45:19
(UTC-05:00)
Language:

Cosmos 2219 Rocket - Orbit

View from above orbital plane
View from above orbital plane
View from above satellite
View from above satellite

Ground track
Ground track

The orbit data is extracted from the following two-line orbital elements,

1 22220U 92076B   17206.97072664 -.00000202 +00000-0 -77522-4 0  9992
2 22220 071.0014 337.6108 0014244 221.6966 276.8939 14.16418519275938
Epoch (UTC): 25 July 2017 23:17:50
Eccentricity: 0.0014244
inclination: 71.0014°
perigee height: 827 km
apogee height: 848 km
right ascension of ascending node: 337.6108°
argument of perigee: 221.6966°
revolutions per day: 14.16418519
mean anomaly at epoch: 276.8939°
orbit number at epoch: 27593

The dashed part of the orbit path shows where the satellite is in the earth's shadow,  

DLR